カタログに戻る

ARIANE 2 DEB

LostGTO
NORAD 27040·DEBRIS·🇫🇷 France

打ち上げ Jan 27, 1989 から Guiana Space Centre

Loading…

TLE

古いSource: Space-Track

元期: Oct 13, 2025, 13:30 UTC

1 27040U 89006V   25286.56267605 -.00000018  00000-0 -30124-2 0  9999
2 27040   7.3186 161.5563 7058296 284.8221 330.8462  2.23775567197930

AllMySatでARIANE 2 DEBをリアルタイム追跡

Download on the App Store